User: anonymous   Login
Location: Unspecified
(0.0000°N, 0.0000°E)
Time: 19:13:35
(UTC+00:00)
Language:

TBA - TO BE ASSIGNED - Orbit

View from above orbital plane
View from above orbital plane
View from above satellite
View from above satellite

Ground track
Ground track

The orbit is defined by the following mean orbital elements,

1 68277U          26145.48692267 +.00000000 +00000-0 +85652-3 0 00004
2 68277  53.1593 321.4904 0001562  88.6022 271.5160 15.34405329    09
Epoch (UTC): 25 May 2026 11:41:10
Eccentricity: 0.0001562
inclination: 53.1593°
perigee height: 462 km
apogee height: 464 km
right ascension of ascending node: 321.4904°
argument of perigee: 88.6022°
revolutions per day: 15.34405329
mean anomaly at epoch: 271.5160°

The dashed part of the orbit path shows where the satellite is in the earth's shadow,  

DLR